Location: Norton
(51.3000°N, 0.8167°E)
Time: 03:06:16
(UTC+00:00)

SJ 16-02 - Pass Details

Date: 03 March 2021
Orbit: 605 x 617 km, 75.0° (Epoch: 13 April)

Event Time Altitude Azimuth Distance (km) Brightness Sun altitude
Rises 19:32:47 0° 341° (NNW) 2,884 5.2 -18.2°
Reaches altitude 10° 19:35:09 10° 349° (N) 1,977 4.2 -18.5°
Maximum altitude 19:39:18 39° 59° (ENE) 930 1.9 -19.1°
Enters shadow 19:39:33 38° 68° (ENE) 936 1.9 -19.2°
